,,,PA_Meas_PMT16A,,PR_Meas_QMR101_102,,RH_Meas_QMH101,,SR_Meas_QMS101,,TA_Meas_QMH101,,GenWind,,GenWind,
date,time,status,PA,status,PR,status,RH,status,SR,status,TA,status,DirAvg,status,SpdAvg,
2008-10-26, 00:00:04,VALID,1011.78,VALID,0,VALID,89.839,VALID,0,VALID,24.1617,VALID,227,VALID,0.128125,
2008-10-26, 00:01:04,VALID,1011.76,VALID,0,VALID,89.8695,VALID,0,VALID,24.1617,VALID,227,VALID,0.204297,
2008-10-26, 00:02:04,VALID,1011.77,VALID,0,VALID,90.2508,VALID,0.105969,VALID,24.2007,VALID,229,VALID,0.242188,
2008-10-26, 00:03:04,VALID,1011.74,VALID,0,VALID,90.3804,VALID,0,VALID,24.1812,VALID,229,VALID,0.13125,
2008-10-26, 00:04:04,VALID,1011.74,VALID,0,VALID,90.5711,VALID,0,VALID,24.2007,VALID,229,VALID,0,
2008-10-26, 00:05:04,VALID,1011.7,VALID,0,VALID,90.7007,VALID,0,VALID,24.2007,VALID,229,VALID,0.0710938,
2008-10-26, 00:06:04,VALID,1011.68,VALID,0,VALID,90.6397,VALID,0,VALID,24.2007,VALID,229,VALID,0.0964844,
2008-10-26, 00:07:04,VALID,1011.65,VALID,0,VALID,90.3652,VALID,0,VALID,24.2007,VALID,229,VALID,0.18125,
2008-10-26, 00:08:04,VALID,1011.63,VALID,0,VALID,90.4186,VALID,0.105969,VALID,24.2007,VALID,229,VALID,0.322656,
2008-10-26, 00:09:04,VALID,1011.62,VALID,0,VALID,90.6168,VALID,0,VALID,24.2007,VALID,229,VALID,0.285547,
2008-10-26, 00:10:04,VALID,1011.59,VALID,0,VALID,91.4785,VALID,0,VALID,24.1793,VALID,243,VALID,0.346094,
2008-10-26, 00:11:04,VALID,1011.57,VALID,0,VALID,91.3413,VALID,0,VALID,24.1617,VALID,292,VALID,0.307031,
2008-10-26, 00:12:04,VALID,1011.57,VALID,0,VALID,91.448,VALID,0,VALID,24.1227,VALID,292,VALID,0.187891,
2008-10-26, 00:13:04,VALID,1011.55,VALID,0,VALID,91.5395,VALID,0,VALID,24.0819,VALID,292,VALID,0.202344,
2008-10-26, 00:14:04,VALID,1011.54,VALID,0,VALID,91.4252,VALID,0,VALID,24.0429,VALID,300,VALID,0.378125,
2008-10-26, 00:15:04,VALID,1011.52,VALID,0,VALID,91.6844,VALID,0,VALID,24.0643,VALID,318,VALID,0.361328,
2008-10-26, 00:16:04,VALID,1011.51,VALID,0,VALID,92.0428,VALID,0,VALID,24.0448,VALID,319,VALID,0.344531,
2008-10-26, 00:17:04,VALID,1011.5,VALID,0,VALID,92.2335,VALID,0,VALID,24.0058,VALID,328,VALID,0.372656,
2008-10-26, 00:18:04,VALID,1011.47,VALID,0,VALID,92.3326,VALID,0,VALID,23.9863,VALID,340,VALID,0.325781,
2008-10-26, 00:19:04,VALID,1011.47,VALID,0,VALID,92.5461,VALID,0,VALID,23.9668,VALID,340,VALID,0.541016,
2008-10-26, 00:20:04,VALID,1011.43,VALID,0,VALID,92.6224,VALID,0,VALID,23.9473,VALID,338,VALID,0.507813,
2008-10-26, 00:21:04,VALID,1011.41,VALID,0,VALID,92.5919,VALID,0,VALID,23.9473,VALID,339,VALID,0.491797,
2008-10-26, 00:22:04,VALID,1011.39,VALID,0,VALID,92.3174,VALID,0,VALID,23.9278,VALID,345,VALID,0.605078,
2008-10-26, 00:23:04,VALID,1011.33,VALID,0,VALID,92.5385,VALID,0,VALID,23.9473,VALID,348,VALID,0.336719,
2008-10-26, 00:24:04,VALID,1011.36,VALID,0,VALID,92.2106,VALID,0,VALID,23.9065,VALID,349,VALID,0.437891,
2008-10-26, 00:25:04,VALID,1011.3,VALID,0,VALID,92.3174,VALID,0,VALID,23.9278,VALID,348,VALID,0.295312,
2008-10-26, 00:26:04,VALID,1011.32,VALID,0,VALID,92.1267,VALID,0,VALID,23.8871,VALID,348,VALID,0.357422,
2008-10-26, 00:27:04,VALID,1011.29,VALID,0,VALID,92.0123,VALID,0,VALID,23.8889,VALID,348,VALID,0.373047,
2008-10-26, 00:28:04,VALID,1011.3,VALID,0,VALID,91.5243,VALID,0,VALID,23.8694,VALID,352,VALID,0.445313,
2008-10-26, 00:29:04,VALID,1011.27,VALID,0,VALID,91.509,VALID,0,VALID,23.8889,VALID,352,VALID,0.516797,
2008-10-26, 00:30:04,VALID,1011.24,VALID,0,VALID,91.6997,VALID,0,VALID,23.8889,VALID,352,VALID,0.167578,
2008-10-26, 00:31:04,VALID,1011.25,VALID,0,VALID,92.1572,VALID,0,VALID,23.9297,VALID,352,VALID,0.125,
2008-10-26, 00:32:04,VALID,1011.25,VALID,0,VALID,91.9361,VALID,0,VALID,23.8694,VALID,352,VALID,0.380469,
2008-10-26, 00:33:04,VALID,1011.2,VALID,0,VALID,91.57,VALID,0,VALID,23.8499,VALID,353,VALID,0.417578,
2008-10-26, 00:34:04,VALID,1011.21,VALID,0,VALID,91.7454,VALID,0,VALID,23.8286,VALID,354,VALID,0.405078,
2008-10-26, 00:35:04,VALID,1011.19,VALID,0,VALID,92.0581,VALID,0,VALID,23.8304,VALID,8,VALID,0.458594,
2008-10-26, 00:36:04,VALID,1011.21,VALID,0,VALID,92.0352,VALID,0,VALID,23.8304,VALID,10,VALID,0.521875,
2008-10-26, 00:37:04,VALID,1011.18,VALID,0,VALID,92.1115,VALID,0,VALID,23.8109,VALID,10,VALID,0.464844,
2008-10-26, 00:38:04,VALID,1011.19,VALID,0,VALID,92.1115,VALID,0,VALID,23.772,VALID,10,VALID,0.388281,
2008-10-26, 00:39:04,VALID,1011.19,VALID,0,VALID,92.1877,VALID,0,VALID,23.7914,VALID,10,VALID,0.246094,
2008-10-26, 00:40:04,VALID,1011.19,VALID,0,VALID,92.3479,VALID,0,VALID,23.772,VALID,10,VALID,0.176953,
2008-10-26, 00:41:04,VALID,1011.19,VALID,0,VALID,92.508,VALID,0,VALID,23.772,VALID,10,VALID,0,
2008-10-26, 00:42:04,VALID,1011.2,VALID,0,VALID,92.5461,VALID,0,VALID,23.7525,VALID,10,VALID,0,
2008-10-26, 00:43:04,VALID,1011.18,VALID,0,VALID,92.5309,VALID,0,VALID,23.7507,VALID,10,VALID,0,
2008-10-26, 00:44:04,VALID,1011.19,VALID,0,VALID,92.63,VALID,0,VALID,23.7507,VALID,10,VALID,0,
2008-10-26, 00:45:04,VALID,1011.19,VALID,0,VALID,92.9198,VALID,0,VALID,23.7914,VALID,10,VALID,0,
2008-10-26, 00:46:04,VALID,1011.17,VALID,0,VALID,93.0876,VALID,0,VALID,23.7914,VALID,10,VALID,0,
2008-10-26, 00:47:04,VALID,1011.15,VALID,0,VALID,92.9427,VALID,0,VALID,23.772,VALID,10,VALID,0,
2008-10-26, 00:48:04,VALID,1011.18,VALID,0,VALID,92.813,VALID,0,VALID,23.772,VALID,10,VALID,0,
2008-10-26, 00:49:04,VALID,1011.14,VALID,0,VALID,92.7673,VALID,0,VALID,23.772,VALID,10,VALID,0,
2008-10-26, 00:50:04,VALID,1011.14,VALID,0,VALID,92.813,VALID,0,VALID,23.7914,VALID,10,VALID,0,
2008-10-26, 00:51:04,VALID,1011.15,VALID,0,VALID,92.8054,VALID,0,VALID,23.772,VALID,10,VALID,0.0632813,
2008-10-26, 00:52:04,VALID,1011.13,VALID,0,VALID,92.9122,VALID,0,VALID,23.8091,VALID,10,VALID,0,
2008-10-26, 00:53:04,VALID,1011.15,VALID,0,VALID,92.9961,VALID,0,VALID,23.8109,VALID,10,VALID,0,
2008-10-26, 00:54:04,VALID,1011.13,VALID,0,VALID,93.0037,VALID,0,VALID,23.8304,VALID,10,VALID,0.00273437,
2008-10-26, 00:55:04,VALID,1011.12,VALID,0,VALID,93.0037,VALID,0,VALID,23.8304,VALID,10,VALID,0.0375,
2008-10-26, 00:56:04,VALID,1011.12,VALID,0,VALID,93.0037,VALID,0,VALID,23.8304,VALID,10,VALID,0,
2008-10-26, 00:57:04,VALID,1011.1,VALID,0,VALID,92.8893,VALID,0,VALID,23.8304,VALID,10,VALID,0.0785156,
2008-10-26, 00:58:04,VALID,1011.1,VALID,0,VALID,92.7749,VALID,0,VALID,23.8091,VALID,10,VALID,0.3,
2008-10-26, 00:59:04,VALID,1011.09,VALID,0,VALID,92.6987,VALID,0,VALID,23.8499,VALID,10,VALID,0.220313,
2008-10-26, 01:00:04,VALID,1011.09,VALID,0,VALID,92.5995,VALID,0,VALID,23.8091,VALID,10,VALID,0.148438,
2008-10-26, 01:01:04,VALID,1011.08,VALID,0,VALID,92.6529,VALID,0,VALID,23.8694,VALID,10,VALID,0.221875,
2008-10-26, 01:02:04,VALID,1011.1,VALID,0,VALID,92.8359,VALID,0,VALID,23.8694,VALID,10,VALID,0.166016,
2008-10-26, 01:03:04,VALID,1011.1,VALID,0,VALID,92.8436,VALID,0,VALID,23.8694,VALID,10,VALID,0.00195313,
2008-10-26, 01:04:04,VALID,1011.08,VALID,0,VALID,92.9198,VALID,0,VALID,23.8889,VALID,10,VALID,0.0410156,
2008-10-26, 01:05:04,VALID,1011.08,VALID,0,VALID,93.0418,VALID,0,VALID,23.8889,VALID,10,VALID,0,
2008-10-26, 01:06:04,VALID,1011.04,VALID,0,VALID,93.141,VALID,0,VALID,23.9084,VALID,10,VALID,0,
2008-10-26, 01:07:04,VALID,1011.05,VALID,0,VALID,93.1486,VALID,0,VALID,23.9084,VALID,10,VALID,0,
2008-10-26, 01:08:04,VALID,1011.05,VALID,0,VALID,93.0799,VALID,0,VALID,23.8889,VALID,10,VALID,0,
2008-10-26, 01:09:04,VALID,1011.01,VALID,0,VALID,93.1028,VALID,0,VALID,23.9084,VALID,10,VALID,0,
2008-10-26, 01:10:04,VALID,1011,VALID,0,VALID,93.1715,VALID,0,VALID,23.9084,VALID,10,VALID,0,
2008-10-26, 01:11:04,VALID,1011.02,VALID,0,VALID,93.2401,VALID,0,VALID,23.9278,VALID,10,VALID,0,
2008-10-26, 01:12:04,VALID,1010.99,VALID,0,VALID,93.4079,VALID,0,VALID,23.9473,VALID,10,VALID,0.169531,
2008-10-26, 01:13:04,VALID,1010.99,VALID,0,VALID,93.4002,VALID,0,VALID,23.9278,VALID,10,VALID,0.0292969,
2008-10-26, 01:14:04,VALID,1011.01,VALID,0,VALID,93.3087,VALID,0,VALID,23.9084,VALID,10,VALID,0.0507813,
2008-10-26, 01:15:04,VALID,1011,VALID,0,VALID,93.385,VALID,0,VALID,23.9473,VALID,10,VALID,0.0625,
2008-10-26, 01:16:04,VALID,1011,VALID,0,VALID,93.3087,VALID,0,VALID,23.9491,VALID,10,VALID,0.186328,
2008-10-26, 01:17:04,VALID,1011.01,VALID,0,VALID,93.4155,VALID,0,VALID,23.9473,VALID,10,VALID,0.147656,
2008-10-26, 01:18:04,VALID,1011.02,VALID,0,VALID,93.446,VALID,0,VALID,23.9473,VALID,10,VALID,0,
2008-10-26, 01:19:04,VALID,1011.01,VALID,0,VALID,93.3926,VALID,0,VALID,23.9278,VALID,10,VALID,0,
2008-10-26, 01:20:04,VALID,1011.01,VALID,0,VALID,93.3697,VALID,0,VALID,23.9278,VALID,10,VALID,0,
2008-10-26, 01:21:04,VALID,1010.99,VALID,0,VALID,93.324,VALID,0,VALID,23.9473,VALID,10,VALID,0,
2008-10-26, 01:22:04,VALID,1010.99,VALID,0,VALID,93.2096,VALID,0,VALID,23.9065,VALID,10,VALID,0,
2008-10-26, 01:23:04,VALID,1010.97,VALID,0,VALID,93.2248,VALID,0,VALID,23.9473,VALID,10,VALID,0,
2008-10-26, 01:24:04,VALID,1010.95,VALID,0,VALID,93.2706,VALID,0,VALID,23.9473,VALID,10,VALID,0,
2008-10-26, 01:25:04,VALID,1010.95,VALID,0,VALID,93.2706,VALID,0,VALID,23.9473,VALID,10,VALID,0,
2008-10-26, 01:26:04,VALID,1010.97,VALID,0,VALID,93.1486,VALID,0,VALID,23.926,VALID,10,VALID,0,
2008-10-26, 01:27:04,VALID,1010.95,VALID,0,VALID,93.0799,VALID,0,VALID,23.9278,VALID,10,VALID,0,
2008-10-26, 01:28:04,VALID,1010.93,VALID,0,VALID,93.0952,VALID,0,VALID,23.9473,VALID,10,VALID,0,
2008-10-26, 01:29:04,VALID,1010.95,VALID,0,VALID,93.2401,VALID,0,VALID,23.9668,VALID,10,VALID,0.0148437,
2008-10-26, 01:30:04,VALID,1010.94,VALID,0,VALID,93.0037,VALID,0,VALID,23.9668,VALID,359,VALID,0.350781,
2008-10-26, 01:31:04,VALID,1010.93,VALID,0,VALID,92.5233,VALID,0,VALID,23.9473,VALID,343,VALID,0.183203,
2008-10-26, 01:32:04,VALID,1010.9,VALID,0,VALID,92.7139,VALID,0,VALID,24.0058,VALID,336,VALID,0.00703125,
2008-10-26, 01:33:04,VALID,1010.9,VALID,0,VALID,92.6758,VALID,0,VALID,24.0058,VALID,336,VALID,0.028125,
2008-10-26, 01:34:04,VALID,1010.9,VALID,0,VALID,92.8741,VALID,0,VALID,24.0448,VALID,336,VALID,0.0722656,
2008-10-26, 01:35:04,VALID,1010.91,VALID,0,VALID,92.8588,VALID,0,VALID,24.0058,VALID,336,VALID,0.171484,
2008-10-26, 01:36:04,VALID,1010.88,VALID,0,VALID,92.7902,VALID,0,VALID,24.0253,VALID,336,VALID,0.209375,
2008-10-26, 01:37:04,VALID,1010.88,VALID,0,VALID,92.8436,VALID,0,VALID,24.0253,VALID,336,VALID,0.0460938,
2008-10-26, 01:38:04,VALID,1010.88,VALID,0,VALID,92.7902,VALID,0.105969,VALID,23.9845,VALID,336,VALID,0.233203,
2008-10-26, 01:39:04,VALID,1010.87,VALID,0,VALID,92.8207,VALID,0.105969,VALID,23.9845,VALID,336,VALID,0.0953125,
2008-10-26, 01:40:04,VALID,1010.88,VALID,0,VALID,92.8512,VALID,0,VALID,24.0058,VALID,336,VALID,0.0105469,
2008-10-26, 01:41:04,VALID,1010.87,VALID,0,VALID,92.8893,VALID,0,VALID,23.9863,VALID,336,VALID,0,
2008-10-26, 01:42:04,VALID,1010.88,VALID,0,VALID,92.9884,VALID,0,VALID,24.0058,VALID,336,VALID,0,
2008-10-26, 01:43:04,VALID,1010.85,VALID,0,VALID,93.0799,VALID,0,VALID,24.0058,VALID,336,VALID,0.0328125,
2008-10-26, 01:44:04,VALID,1010.87,VALID,0,VALID,92.9351,VALID,0,VALID,24.0058,VALID,336,VALID,0,
2008-10-26, 01:45:04,VALID,1010.86,VALID,0,VALID,92.8664,VALID,0,VALID,23.965,VALID,336,VALID,0,
2008-10-26, 01:46:04,VALID,1010.86,VALID,0,VALID,92.9427,VALID,0,VALID,24.0058,VALID,336,VALID,0,
2008-10-26, 01:47:04,VALID,1010.84,VALID,0,VALID,92.8893,VALID,0,VALID,23.9863,VALID,336,VALID,0.0863281,
2008-10-26, 01:48:04,VALID,1010.86,VALID,0,VALID,92.7292,VALID,0,VALID,23.9863,VALID,336,VALID,0,
2008-10-26, 01:49:04,VALID,1010.85,VALID,0,VALID,92.3479,VALID,0.105969,VALID,23.965,VALID,336,VALID,0,
2008-10-26, 01:50:04,VALID,1010.86,VALID,0,VALID,92.2716,VALID,0,VALID,24.0058,VALID,336,VALID,0,
2008-10-26, 01:51:04,VALID,1010.85,VALID,0,VALID,92.2182,VALID,0,VALID,24.0058,VALID,336,VALID,0,
2008-10-26, 01:52:04,VALID,1010.85,VALID,0,VALID,91.9895,VALID,0,VALID,24.0271,VALID,336,VALID,0,
2008-10-26, 01:53:04,VALID,1010.84,VALID,0,VALID,91.7149,VALID,0,VALID,24.0058,VALID,336,VALID,0,
2008-10-26, 01:54:04,VALID,1010.83,VALID,0,VALID,92.1725,VALID,0,VALID,24.0448,VALID,336,VALID,0,
2008-10-26, 01:55:04,VALID,1010.87,VALID,0,VALID,92.2487,VALID,0.105969,VALID,24.0235,VALID,336,VALID,0,
2008-10-26, 01:56:04,VALID,1010.88,VALID,0,VALID,92.0733,VALID,0.105969,VALID,23.9863,VALID,336,VALID,0,
2008-10-26, 01:57:04,VALID,1010.86,VALID,0,VALID,91.9666,VALID,0,VALID,24.0058,VALID,336,VALID,0,
2008-10-26, 01:58:04,VALID,1010.88,VALID,0,VALID,92.2564,VALID,0,VALID,24.0058,VALID,336,VALID,0,
2008-10-26, 01:59:04,VALID,1010.89,VALID,0,VALID,92.3936,VALID,0,VALID,24.0253,VALID,336,VALID,0.170703,
2008-10-26, 02:00:04,VALID,1010.86,VALID,0,VALID,92.63,VALID,0,VALID,24.0253,VALID,90,VALID,0.426562,
2008-10-26, 02:01:04,VALID,1010.88,VALID,0,VALID,92.3936,VALID,0,VALID,24.0058,VALID,91,VALID,0.549609,
2008-10-26, 02:02:04,VALID,1010.86,VALID,0,VALID,92.4165,VALID,0,VALID,24.0448,VALID,102,VALID,0.626172,
2008-10-26, 02:03:04,VALID,1010.87,VALID,0,VALID,92.6834,VALID,0,VALID,24.0837,VALID,129,VALID,0.685156,
2008-10-26, 02:04:04,VALID,1010.89,VALID,0,VALID,92.691,VALID,0,VALID,24.0837,VALID,153,VALID,0.760938,
2008-10-26, 02:05:04,VALID,1010.87,VALID,0,VALID,92.5461,VALID,0,VALID,24.0624,VALID,156,VALID,0.770312,
2008-10-26, 02:06:04,VALID,1010.89,VALID,0,VALID,92.4165,VALID,0,VALID,24.0429,VALID,136,VALID,1.08516,
2008-10-26, 02:07:04,VALID,1010.9,VALID,0,VALID,92.264,VALID,0,VALID,24.0643,VALID,141,VALID,0.658594,
2008-10-26, 02:08:04,VALID,1010.91,VALID,0,VALID,92.3631,VALID,0,VALID,24.0643,VALID,131,VALID,0.66875,
2008-10-26, 02:09:04,VALID,1010.89,VALID,0,VALID,92.1801,VALID,0,VALID,24.0448,VALID,129,VALID,0.870703,
2008-10-26, 02:10:04,VALID,1010.88,VALID,0,VALID,92.1801,VALID,0,VALID,24.0448,VALID,145,VALID,0.555078,
2008-10-26, 02:11:04,VALID,1010.86,VALID,0,VALID,92.203,VALID,0,VALID,24.0643,VALID,139,VALID,0.658203,
2008-10-26, 02:12:04,VALID,1010.88,VALID,0,VALID,92.1496,VALID,0,VALID,24.0448,VALID,139,VALID,0.635547,
2008-10-26, 02:13:04,VALID,1010.86,VALID,0,VALID,92.2259,VALID,0,VALID,24.0643,VALID,164,VALID,0.625781,
2008-10-26, 02:14:04,VALID,1010.87,VALID,0,VALID,92.1496,VALID,0,VALID,24.0448,VALID,159,VALID,0.756641,
2008-10-26, 02:15:04,VALID,1010.87,VALID,0,VALID,91.9513,VALID,0,VALID,24.0058,VALID,163,VALID,1.00742,
2008-10-26, 02:16:04,VALID,1010.88,VALID,0,VALID,91.9666,VALID,0,VALID,24.0058,VALID,141,VALID,1.11328,
2008-10-26, 02:17:04,VALID,1010.85,VALID,0,VALID,92.0123,VALID,0.105969,VALID,23.9845,VALID,172,VALID,0.910547,
2008-10-26, 02:18:04,VALID,1010.88,VALID,0,VALID,91.7378,VALID,0,VALID,23.9863,VALID,170,VALID,1.00781,
2008-10-26, 02:19:04,VALID,1010.88,VALID,0,VALID,91.6005,VALID,0,VALID,23.9845,VALID,175,VALID,0.838672,
2008-10-26, 02:20:04,VALID,1010.85,VALID,0,VALID,91.4557,VALID,0,VALID,23.9863,VALID,158,VALID,0.936719,
2008-10-26, 02:21:04,VALID,1010.87,VALID,0,VALID,91.143,VALID,0.105969,VALID,23.9845,VALID,155,VALID,0.907812,
2008-10-26, 02:22:04,VALID,1010.88,VALID,0,VALID,91.1201,VALID,0,VALID,24.0253,VALID,149,VALID,0.801172,
2008-10-26, 02:23:04,VALID,1010.87,VALID,0,VALID,91.0134,VALID,0,VALID,24.0448,VALID,140,VALID,0.912109,
2008-10-26, 02:24:04,VALID,1010.86,VALID,0,VALID,91.021,VALID,0,VALID,24.0448,VALID,135,VALID,0.881641,
2008-10-26, 02:25:04,VALID,1010.84,VALID,0,VALID,90.8761,VALID,0,VALID,24.0448,VALID,135,VALID,1.09805,
2008-10-26, 02:26:04,VALID,1010.86,VALID,0,VALID,90.6092,VALID,0.105969,VALID,24.0643,VALID,159,VALID,1.09609,
2008-10-26, 02:27:04,VALID,1010.85,VALID,0,VALID,90.8914,VALID,0.105969,VALID,24.1032,VALID,158,VALID,0.963672,
2008-10-26, 02:28:04,VALID,1010.84,VALID,0,VALID,90.9524,VALID,0,VALID,24.1227,VALID,170,VALID,0.742578,
2008-10-26, 02:29:04,VALID,1010.84,VALID,0,VALID,90.7617,VALID,0,VALID,24.0819,VALID,169,VALID,0.984766,
2008-10-26, 02:30:04,VALID,1010.81,VALID,0,VALID,90.5024,VALID,0,VALID,24.1227,VALID,176,VALID,0.670313,
2008-10-26, 02:31:04,VALID,1010.79,VALID,0,VALID,89.4653,VALID,0,VALID,24.1227,VALID,165,VALID,0.73125,
2008-10-26, 02:32:04,VALID,1010.8,VALID,0,VALID,89.4958,VALID,0,VALID,24.1422,VALID,187,VALID,0.619922,
2008-10-26, 02:33:04,VALID,1010.81,VALID,0,VALID,89.9305,VALID,0,VALID,24.1617,VALID,186,VALID,0.251563,
2008-10-26, 02:34:04,VALID,1010.78,VALID,0,VALID,88.6418,VALID,0,VALID,24.1422,VALID,186,VALID,0.3875,
2008-10-26, 02:35:04,VALID,1010.78,VALID,0,VALID,88.1918,VALID,0,VALID,24.1812,VALID,186,VALID,0.260938,
2008-10-26, 02:36:04,VALID,1010.8,VALID,0,VALID,88.6189,VALID,0,VALID,24.1793,VALID,186,VALID,0,
2008-10-26, 02:37:04,VALID,1010.81,VALID,0,VALID,87.7267,VALID,0,VALID,24.2202,VALID,186,VALID,0.0449219,
2008-10-26, 02:38:04,VALID,1010.82,VALID,0,VALID,87.4826,VALID,0,VALID,24.2396,VALID,183,VALID,0.125781,
2008-10-26, 02:39:04,VALID,1010.82,VALID,0,VALID,87.9173,VALID,0,VALID,24.2591,VALID,160,VALID,0.332422,
2008-10-26, 02:40:04,VALID,1010.81,VALID,0,VALID,87.597,VALID,0,VALID,24.2573,VALID,160,VALID,0.287109,
2008-10-26, 02:41:04,VALID,1010.78,VALID,0,VALID,87.7724,VALID,0,VALID,24.2573,VALID,160,VALID,0.220703,
2008-10-26, 02:42:04,VALID,1010.76,VALID,0,VALID,88.2605,VALID,0,VALID,24.2786,VALID,160,VALID,0.350781,
2008-10-26, 02:43:04,VALID,1010.77,VALID,0,VALID,87.9859,VALID,0,VALID,24.2981,VALID,160,VALID,0.341406,
2008-10-26, 02:44:04,VALID,1010.73,VALID,0,VALID,88.5731,VALID,0,VALID,24.2591,VALID,160,VALID,0.298047,
2008-10-26, 02:45:04,VALID,1010.72,VALID,0,VALID,88.5884,VALID,0,VALID,24.2396,VALID,163,VALID,0.377734,
2008-10-26, 02:46:04,VALID,1010.73,VALID,0,VALID,88.8019,VALID,0,VALID,24.2202,VALID,174,VALID,0.3875,
2008-10-26, 02:47:04,VALID,1010.72,VALID,0,VALID,89.3738,VALID,0,VALID,24.1793,VALID,174,VALID,0.273438,
2008-10-26, 02:48:04,VALID,1010.71,VALID,0,VALID,89.1374,VALID,0,VALID,24.1599,VALID,182,VALID,0.31875,
2008-10-26, 02:49:04,VALID,1010.73,VALID,0,VALID,89.3128,VALID,0,VALID,24.1617,VALID,181,VALID,0.133203,
2008-10-26, 02:50:04,VALID,1010.68,VALID,0,VALID,89.656,VALID,0,VALID,24.1227,VALID,182,VALID,0.315625,
2008-10-26, 02:51:04,VALID,1010.68,VALID,0,VALID,89.5035,VALID,0,VALID,24.0624,VALID,182,VALID,0.278516,
2008-10-26, 02:52:04,VALID,1010.66,VALID,0,VALID,90.1669,VALID,0,VALID,24.0643,VALID,181,VALID,0.23125,
2008-10-26, 02:53:04,VALID,1010.68,VALID,0,VALID,90.4872,VALID,0,VALID,24.0448,VALID,182,VALID,0.332812,
2008-10-26, 02:54:04,VALID,1010.66,VALID,0,VALID,91.2193,VALID,0,VALID,24.004,VALID,181,VALID,0.386328,
2008-10-26, 02:55:04,VALID,1010.64,VALID,0,VALID,91.6997,VALID,0,VALID,24.0253,VALID,7,VALID,0.503906,
2008-10-26, 02:56:04,VALID,1010.65,VALID,0,VALID,91.2803,VALID,0,VALID,23.9473,VALID,7,VALID,0.473047,
2008-10-26, 02:57:04,VALID,1010.65,VALID,0,VALID,91.6997,VALID,0,VALID,23.9278,VALID,6,VALID,0.569922,
2008-10-26, 02:58:04,VALID,1010.61,VALID,0,VALID,92.0352,VALID,0,VALID,23.8889,VALID,6,VALID,0.480469,
2008-10-26, 02:59:04,VALID,1010.62,VALID,0,VALID,91.9285,VALID,0,VALID,23.8091,VALID,3,VALID,0.400781,
2008-10-26, 03:00:04,VALID,1010.61,VALID,0,VALID,92.2716,VALID,0,VALID,23.8304,VALID,2,VALID,0.272656,
2008-10-26, 03:01:04,VALID,1010.59,VALID,0,VALID,92.5843,VALID,0,VALID,23.7896,VALID,2,VALID,0.228125,
2008-10-26, 03:02:04,VALID,1010.59,VALID,0,VALID,92.7825,VALID,0,VALID,23.7896,VALID,2,VALID,0.321094,
2008-10-26, 03:03:04,VALID,1010.57,VALID,0,VALID,92.9122,VALID,0,VALID,23.7507,VALID,2,VALID,0.209375,
2008-10-26, 03:04:04,VALID,1010.54,VALID,0,VALID,92.8741,VALID,0,VALID,23.733,VALID,2,VALID,0.170312,
2008-10-26, 03:05:04,VALID,1010.53,VALID,0,VALID,92.9274,VALID,0,VALID,23.7117,VALID,2,VALID,0,
2008-10-26, 03:06:04,VALID,1010.51,VALID,0,VALID,93.1028,VALID,0,VALID,23.7135,VALID,2,VALID,0,
2008-10-26, 03:07:04,VALID,1010.51,VALID,0,VALID,93.1486,VALID,0,VALID,23.6922,VALID,2,VALID,0.00429688,
2008-10-26, 03:08:04,VALID,1010.49,VALID,0,VALID,93.1486,VALID,0,VALID,23.694,VALID,2,VALID,0,
2008-10-26, 03:09:04,VALID,1010.49,VALID,0,VALID,93.263,VALID,0,VALID,23.6922,VALID,2,VALID,0,
2008-10-26, 03:10:04,VALID,1010.49,VALID,0,VALID,93.4384,VALID,0,VALID,23.7135,VALID,2,VALID,0,
2008-10-26, 03:11:04,VALID,1010.47,VALID,0,VALID,93.5985,VALID,0.105969,VALID,23.7117,VALID,2,VALID,0,
2008-10-26, 03:12:04,VALID,1010.48,VALID,0,VALID,93.6748,VALID,0,VALID,23.7135,VALID,2,VALID,0,
2008-10-26, 03:13:04,VALID,1010.48,VALID,0,VALID,93.5985,VALID,0,VALID,23.6532,VALID,2,VALID,0,
2008-10-26, 03:14:04,VALID,1010.47,VALID,0,VALID,93.5527,VALID,0,VALID,23.6727,VALID,2,VALID,0,
2008-10-26, 03:15:04,VALID,1010.49,VALID,0,VALID,93.6214,VALID,0,VALID,23.7135,VALID,2,VALID,0,
2008-10-26, 03:16:04,VALID,1010.48,VALID,0,VALID,93.6137,VALID,0,VALID,23.694,VALID,2,VALID,0,
2008-10-26, 03:17:04,VALID,1010.48,VALID,0,VALID,93.6824,VALID,0,VALID,23.7135,VALID,2,VALID,0,
2008-10-26, 03:18:04,VALID,1010.49,VALID,0,VALID,93.7281,VALID,0,VALID,23.6922,VALID,2,VALID,0,
2008-10-26, 03:19:04,VALID,1010.5,VALID,0,VALID,93.5832,VALID,0,VALID,23.6745,VALID,2,VALID,0,
2008-10-26, 03:20:04,VALID,1010.51,VALID,0,VALID,93.4994,VALID,0,VALID,23.694,VALID,2,VALID,0,
2008-10-26, 03:21:04,VALID,1010.53,VALID,0,VALID,93.4536,VALID,0,VALID,23.733,VALID,2,VALID,0,
2008-10-26, 03:22:04,VALID,1010.53,VALID,0,VALID,93.4384,VALID,0,VALID,23.733,VALID,2,VALID,0,
2008-10-26, 03:23:04,VALID,1010.54,VALID,0,VALID,93.3163,VALID,0,VALID,23.733,VALID,2,VALID,0.0753906,
2008-10-26, 03:24:04,VALID,1010.52,VALID,0,VALID,93.141,VALID,0,VALID,23.772,VALID,2,VALID,0.160938,
2008-10-26, 03:25:04,VALID,1010.56,VALID,0,VALID,92.9961,VALID,0,VALID,23.8109,VALID,3,VALID,0.299609,
2008-10-26, 03:26:04,VALID,1010.56,VALID,0,VALID,92.9046,VALID,0,VALID,23.8499,VALID,73,VALID,0.266016,
2008-10-26, 03:27:04,VALID,1010.55,VALID,0,VALID,92.7368,VALID,0.105969,VALID,23.9084,VALID,133,VALID,0.536719,
2008-10-26, 03:28:04,VALID,1010.55,VALID,0,VALID,92.9046,VALID,0,VALID,23.926,VALID,134,VALID,0.469141,
2008-10-26, 03:29:04,VALID,1010.58,VALID,0,VALID,92.9046,VALID,0,VALID,23.9668,VALID,133,VALID,0.333594,
2008-10-26, 03:30:04,VALID,1010.59,VALID,0,VALID,92.7673,VALID,0,VALID,23.9863,VALID,137,VALID,0.492578,
2008-10-26, 03:31:04,VALID,1010.6,VALID,0,VALID,92.5995,VALID,0,VALID,23.965,VALID,142,VALID,0.114453,
2008-10-26, 03:32:04,VALID,1010.62,VALID,0,VALID,92.569,VALID,0,VALID,24.0058,VALID,144,VALID,0.380469,
2008-10-26, 03:33:04,VALID,1010.64,VALID,0,VALID,92.6224,VALID,0,VALID,24.0253,VALID,150,VALID,0.403906,
2008-10-26, 03:34:04,VALID,1010.65,VALID,0,VALID,92.5614,VALID,0,VALID,24.0253,VALID,161,VALID,0.513281,
2008-10-26, 03:35:04,VALID,1010.65,VALID,0,VALID,92.4623,VALID,0,VALID,24.004,VALID,167,VALID,0.617969,
2008-10-26, 03:36:04,VALID,1010.63,VALID,0,VALID,92.4699,VALID,0,VALID,24.0235,VALID,168,VALID,0.591016,
2008-10-26, 03:37:04,VALID,1010.64,VALID,0,VALID,92.5461,VALID,0,VALID,24.0058,VALID,167,VALID,0.602344,
2008-10-26, 03:38:04,VALID,1010.66,VALID,0,VALID,92.4775,VALID,0,VALID,24.0253,VALID,146,VALID,0.776953,
2008-10-26, 03:39:04,VALID,1010.65,VALID,0,VALID,92.3555,VALID,0,VALID,24.0058,VALID,146,VALID,0.711328,
2008-10-26, 03:40:04,VALID,1010.64,VALID,0,VALID,92.5233,VALID,0,VALID,24.0058,VALID,145,VALID,0.446094,
2008-10-26, 03:41:04,VALID,1010.63,VALID,0,VALID,92.691,VALID,0,VALID,24.0058,VALID,140,VALID,0.498828,
2008-10-26, 03:42:04,VALID,1010.61,VALID,0,VALID,92.4851,VALID,0,VALID,23.965,VALID,135,VALID,0.683984,
2008-10-26, 03:43:04,VALID,1010.63,VALID,0,VALID,92.4165,VALID,0,VALID,23.9863,VALID,126,VALID,0.739453,
2008-10-26, 03:44:04,VALID,1010.63,VALID,0,VALID,92.569,VALID,0,VALID,23.9863,VALID,118,VALID,0.800781,
2008-10-26, 03:45:04,VALID,1010.64,VALID,0,VALID,92.6529,VALID,0,VALID,23.9845,VALID,108,VALID,0.808984,
2008-10-26, 03:46:04,VALID,1010.63,VALID,0,VALID,92.4546,VALID,0,VALID,23.965,VALID,116,VALID,0.869922,
2008-10-26, 03:47:04,VALID,1010.67,VALID,0,VALID,92.2411,VALID,0,VALID,23.965,VALID,118,VALID,0.895312,
2008-10-26, 03:48:04,VALID,1010.65,VALID,0,VALID,92.3708,VALID,0,VALID,23.9863,VALID,115,VALID,0.692578,
2008-10-26, 03:49:04,VALID,1010.64,VALID,0,VALID,92.4089,VALID,0,VALID,23.9863,VALID,104,VALID,0.790625,